Location: Corcelles
(46.1547°N, 4.7234°E)
Time: 10:30:13
(UTC+00:00)

BREEZE-M DEB (TANK) - Pass Details

Date: 14 July 2020
Orbit: 274 x 20503 km, 49.2° (Epoch: 05 August)

Event Time Altitude Azimuth Distance (km) Brightness Sun altitude
Exits shadow 01:56:28 10° 283° (WNW) 1,477 4.8 -16.2°
Reaches altitude 10° 01:56:28 10° 283° (WNW) 1,477 4.8 -16.2°
Maximum altitude 01:59:10 56° 203° (SSW) 790 3.2 -15.9°
Drops below altitude 10° 02:07:36 10° 127° (SE) 4,501 7.4 -15.1°
Sets 02:15:00 0° 125° (SE) 7,686 8.6 -14.4°
